DL1MX-13 Weather Reports


Display with metric or nautical units.
time (UTC)temp
F
wind
direction
speed
MPH
gust
MPH
rain 1hr
in
rain 24hr
in
rain mn
in
humidity
%
barometer
mb
20260505020502 51 65 0.0 0.0 0.00 0.00 0.00 92 1011.8
20260505020401 51 65 0.0 0.0 0.00 0.00 0.00 92 1011.8
20260505020302 51 65 0.0 0.0 0.00 0.00 0.00 92 1011.9
20260505020202 51 65 0.0 0.0 0.00 0.00 0.00 92 1011.9
20260505020002 51 65 0.0 0.0 0.00 0.00 0.00 92 1011.9
20260505015901 51 65 0.0 0.0 0.00 0.00 0.00 92 1011.9
20260505015802 51 65 0.0 0.0 0.00 0.00 0.00 92 1011.9
20260505015701 51 50 0.0 0.0 0.00 0.00 0.00 92 1011.9
20260505015602 51 50 0.0 0.0 0.00 0.00 0.00 92 1011.9
20260505015502 51 45 0.0 0.0 0.00 0.00 0.00 92 1011.9
20260505015401 51 45 0.0 0.0 0.00 0.00 0.00 92 1011.9
20260505015303 51 52 0.0 0.0 0.00 0.00 0.00 92 1011.9
20260505015201 51 52 0.0 0.0 0.00 0.00 0.00 92 1011.9
20260505015102 51 52 0.0 0.0 0.00 0.00 0.00 92 1011.9
20260505015002 51 52 3.0 0.0 0.00 0.00 0.00 91 1011.9
20260505014901 51 52 3.0 0.0 0.00 0.00 0.00 91 1011.9
20260505014802 51 52 3.0 0.0 0.00 0.00 0.00 91 1011.9
20260505014701 51 47 3.0 0.0 0.00 0.00 0.00 91 1012.0
20260505014602 51 47 3.0 0.0 0.00 0.00 0.00 91 1011.9
20260505014502 51 60 0.0 0.0 0.00 0.00 0.00 91 1012.0
20260505014402 51 60 0.0 0.0 0.00 0.00 0.00 91 1011.9
20260505014302 51 60 0.0 0.0 0.00 0.00 0.00 91 1012.0
20260505014201 50 37 4.0 0.0 0.00 0.00 0.00 91 1012.0
20260505014102 50 37 4.0 0.0 0.00 0.00 0.00 91 1012.0
20260505014001 50 37 4.0 0.0 0.00 0.00 0.00 91 1012.0
20260505013902 50 37 4.0 0.0 0.00 0.00 0.00 91 1012.0
20260505013801 50 37 4.0 0.0 0.00 0.00 0.00 91 1012.0
20260505013702 50 57 0.0 0.0 0.00 0.00 0.00 91 1012.0
20260505013602 50 57 0.0 0.0 0.00 0.00 0.00 91 1011.9
20260505013501 50 57 0.0 0.0 0.00 0.00 0.00 91 1012.0
20260505013402 50 57 0.0 0.0 0.00 0.00 0.00 91 1012.0
20260505013301 50 57 0.0 0.0 0.00 0.00 0.00 91 1012.0
20260505013202 50 57 0.0 0.0 0.00 0.00 0.00 91 1012.0
20260505013102 50 57 0.0 0.0 0.00 0.00 0.00 91 1012.0
20260505012902 50 47 3.0 0.0 0.00 0.00 0.00 91 1012.0
20260505012801 50 47 3.0 0.0 0.00 0.00 0.00 91 1012.0
20260505012702 50 52 3.0 0.0 0.00 0.00 0.00 91 1012.1
20260505012601 50 52 3.0 0.0 0.00 0.00 0.00 91 1012.1
20260505012502 50 52 3.0 0.0 0.00 0.00 0.00 91 1012.0
20260505012402 51 50 4.0 0.0 0.00 0.00 0.00 91 1012.1
20260505012304 51 50 4.0 0.0 0.00 0.00 0.00 91 1012.1
20260505012202 51 160 0.0 0.0 0.00 0.00 0.00 91 1012.1
20260505012102 51 160 0.0 0.0 0.00 0.00 0.00 91 1012.1
20260505012002 51 160 0.0 0.0 0.00 0.00 0.00 91 1012.2
20260505011901 51 160 0.0 0.0 0.00 0.00 0.00 91 1012.2
20260505011802 51 160 0.0 0.0 0.00 0.00 0.00 91 1012.1
20260505011702 51 160 0.0 0.0 0.00 0.00 0.00 91 1012.1
20260505011602 51 160 0.0 0.0 0.00 0.00 0.00 91 1012.1
20260505011502 51 160 0.0 0.0 0.00 0.00 0.00 91 1012.1
20260505011401 51 160 0.0 0.0 0.00 0.00 0.00 91 1012.1
20260505011302 51 160 0.0 0.0 0.00 0.00 0.00 91 1012.1
20260505011201 51 160 0.0 0.0 0.00 0.00 0.00 91 1012.1
20260505011102 51 160 0.0 0.0 0.00 0.00 0.00 91 1012.1
20260505011001 51 160 0.0 0.0 0.00 0.00 0.00 91 1012.1
20260505010902 51 160 0.0 0.0 0.00 0.00 0.00 91 1012.1
20260505010802 51 160 0.0 0.0 0.00 0.00 0.00 91 1012.1
20260505010701 51 160 0.0 0.0 0.00 0.00 0.00 91 1012.1
20260505010602 51 160 0.0 0.0 0.00 0.00 0.00 91 1012.1
20260505010501 51 160 0.0 0.0 0.00 0.00 0.00 91 1012.1
20260505010402 51 160 0.0 0.0 0.00 0.00 0.00 91 1012.1
20260505010302 51 160 0.0 0.0 0.00 0.00 0.00 91 1012.0
20260505010201 51 160 0.0 0.0 0.00 0.00 0.00 91 1012.1
20260505010001 51 160 0.0 0.0 0.00 0.00 0.00 91 1012.1
20260505005902 51 160 0.0 0.0 0.00 0.00 0.00 91 1012.2
20260505005802 51 160 0.0 0.0 0.00 0.00 0.00 91 1012.2
20260505005702 51 160 0.0 0.0 0.00 0.00 0.00 91 1012.2
20260505005602 51 160 0.0 0.0 0.00 0.00 0.00 91 1012.2
20260505005501 51 160 0.0 0.0 0.00 0.00 0.00 91 1012.2
20260505005402 51 160 0.0 0.0 0.00 0.00 0.00 91 1012.2
20260505005303 51 160 0.0 0.0 0.00 0.00 0.00 91 1012.2
20260505005202 51 160 0.0 0.0 0.00 0.00 0.00 91 1012.2
20260505005102 51 160 0.0 0.0 0.00 0.00 0.00 91 1012.2
20260505005002 51 160 0.0 0.0 0.00 0.00 0.00 91 1012.2
20260505004902 51 160 0.0 0.0 0.00 0.00 0.00 91 1012.2
20260505004801 51 160 0.0 0.0 0.00 0.00 0.00 91 1012.2
20260505004702 51 160 0.0 0.0 0.00 0.00 0.00 91 1012.2
20260505004601 51 160 0.0 0.0 0.00 0.00 0.00 91 1012.2
20260505004502 51 160 0.0 0.0 0.00 0.00 0.00 91 1012.2
20260505004402 51 160 0.0 0.0 0.00 0.00 0.00 91 1012.2
20260505004302 51 160 0.0 0.0 0.00 0.00 0.00 91 1012.2
20260505004202 51 160 0.0 0.0 0.00 0.00 0.00 91 1012.2
20260505004101 51 160 0.0 0.0 0.00 0.00 0.00 91 1012.3
20260505004002 51 160 0.0 0.0 0.00 0.00 0.00 91 1012.2
20260505003901 51 160 0.0 0.0 0.00 0.00 0.00 91 1012.3
20260505003802 51 160 0.0 0.0 0.00 0.00 0.00 91 1012.3
20260505003701 51 160 0.0 0.0 0.00 0.00 0.00 91 1012.3
20260505003602 51 185 0.0 0.0 0.00 0.00 0.00 91 1012.3
20260505003502 51 185 0.0 0.0 0.00 0.00 0.00 91 1012.3
20260505003401 51 185 0.0 0.0 0.00 0.00 0.00 91 1012.3
20260505003302 51 80 0.0 0.0 0.00 0.00 0.00 91 1012.3
20260505003201 51 80 0.0 0.0 0.00 0.00 0.00 91 1012.3
20260505003102 51 80 0.0 0.0 0.00 0.00 0.00 91 1012.3
20260505003002 51 80 0.0 0.0 0.00 0.00 0.00 91 1012.3
20260505002902 51 80 0.0 0.0 0.00 0.00 0.00 91 1012.3
20260505002802 51 80 0.0 0.0 0.00 0.00 0.00 91 1012.3
20260505002701 51 80 0.0 0.0 0.00 0.00 0.00 91 1012.4
20260505002602 51 77 0.0 0.0 0.00 0.00 0.00 91 1012.3
20260505002501 51 77 0.0 0.0 0.00 0.00 0.00 91 1012.4
20260505002402 51 77 0.0 0.0 0.00 0.00 0.00 91 1012.4
20260505002303 51 220 0.0 0.0 0.00 0.00 0.00 91 1012.4
20260505002202 51 220 0.0 0.0 0.00 0.00 0.00 91 1012.4
20260505002101 51 220 0.0 0.0 0.00 0.00 0.00 91 1012.4
20260505002001 51 220 0.0 0.0 0.00 0.00 0.00 91 1012.3
20260505001902 51 220 0.0 0.0 0.00 0.00 0.00 91 1012.3
20260505001801 51 212 4.0 0.0 0.00 0.00 0.00 91 1012.2
20260505001702 51 212 4.0 0.0 0.00 0.00 0.00 91 1012.2
20260505001601 51 190 0.0 0.0 0.00 0.00 0.00 91 1012.3
20260505001502 51 190 0.0 0.0 0.00 0.00 0.00 91 1012.3
20260505001402 51 190 0.0 0.0 0.00 0.00 0.00 91 1012.4
20260505001301 51 175 0.0 0.0 0.00 0.00 0.00 91 1012.4
20260505001202 51 175 0.0 0.0 0.00 0.00 0.00 91 1012.5
20260505001101 51 212 0.0 0.0 0.00 0.00 0.00 91 1012.5
20260505001002 51 212 0.0 0.0 0.00 0.00 0.00 91 1012.6
20260505000901 51 212 0.0 0.0 0.00 0.00 0.00 91 1012.6
20260505000802 51 215 0.0 0.0 0.00 0.00 0.00 91 1012.5
20260505000703 51 215 0.0 0.0 0.00 0.00 0.00 91 1012.6
20260505000602 51 215 0.0 0.0 0.00 0.00 0.00 91 1012.6
20260505000502 51 207 0.0 0.0 0.00 0.00 0.00 90 1012.6
20260505000401 51 207 0.0 0.0 0.00 0.00 0.00 90 1012.7
20260505000302 51 215 0.0 0.0 0.00 0.00 0.00 90 1012.6
20260505000204 51 215 0.0 0.0 0.00 0.00 0.00 90 1012.6
20260505000001 51 195 0.0 0.0 0.00 0.00 0.00 90 1012.7
20260504235902 51 195 0.0 0.0 0.00 0.00 0.00 90 1012.7
20260504235802 51 170 0.0 0.0 0.00 0.00 0.00 90 1012.7
20260504235701 51 170 0.0 0.0 0.00 0.00 0.00 90 1012.8
20260504235602 51 170 0.0 0.0 0.00 0.00 0.00 90 1012.8
20260504235501 51 187 0.0 0.0 0.00 0.00 0.00 90 1012.8
20260504235402 51 187 0.0 0.0 0.00 0.00 0.00 90 1012.8
20260504235301 51 187 0.0 0.0 0.00 0.00 0.00 90 1012.9
20260504235202 51 187 0.0 0.0 0.00 0.00 0.00 90 1012.8
20260504235102 51 187 0.0 0.0 0.00 0.00 0.00 90 1012.8
20260504235002 51 187 0.0 0.0 0.00 0.00 0.00 90 1012.8
20260504234902 51 187 0.0 0.0 0.00 0.00 0.00 90 1012.9
20260504234801 51 232 0.0 0.0 0.00 0.00 0.00 90 1012.9
20260504234702 51 232 0.0 0.0 0.00 0.00 0.00 90 1012.9
20260504234601 51 232 0.0 0.0 0.00 0.00 0.00 90 1012.9
20260504234502 51 257 0.0 0.0 0.00 0.00 0.00 90 1012.9
20260504234401 51 257 0.0 0.0 0.00 0.00 0.00 90 1012.9
20260504234302 51 5 0.0 0.0 0.00 0.00 0.00 90 1012.9
20260504234202 51 5 0.0 0.0 0.00 0.00 0.00 90 1012.9
20260504234102 51 5 0.0 0.0 0.00 0.00 0.00 90 1012.9
20260504234002 51 105 0.0 0.0 0.00 0.00 0.00 90 1013.1
20260504233901 51 105 0.0 0.0 0.00 0.00 0.00 90 1012.9
20260504233802 51 115 0.0 0.0 0.00 0.00 0.00 90 1013.1
20260504233701 51 115 0.0 0.0 0.00 0.00 0.00 90 1013.1
20260504233602 51 115 0.0 0.0 0.00 0.00 0.00 90 1013.1
20260504233501 52 230 0.0 0.0 0.00 0.00 0.00 90 1013.1
20260504233402 52 230 0.0 0.0 0.00 0.00 0.00 90 1013.1
20260504233302 52 200 0.0 0.0 0.00 0.00 0.00 90 1013.2
20260504233202 52 200 0.0 0.0 0.00 0.00 0.00 90 1013.1
20260504233102 52 200 0.0 0.0 0.00 0.00 0.00 90 1013.1
20260504233001 52 177 0.0 0.0 0.00 0.00 0.00 90 1013.1
20260504232902 52 177 0.0 0.0 0.00 0.00 0.00 90 1013.1
20260504232801 52 215 0.0 0.0 0.00 0.00 0.00 90 1013.1
20260504232702 52 215 0.0 0.0 0.00 0.00 0.00 90 1013.1
20260504232602 52 215 0.0 0.0 0.00 0.00 0.00 90 1013.2
20260504232502 52 325 0.0 0.0 0.00 0.00 0.00 89 1013.2
20260504232402 52 325 0.0 0.0 0.00 0.00 0.00 89 1013.2
20260504232303 52 325 0.0 0.0 0.00 0.00 0.00 89 1013.2
20260504232202 52 65 0.0 0.0 0.00 0.00 0.00 89 1013.2
20260504232101 52 65 0.0 0.0 0.00 0.00 0.00 89 1013.3
20260504232002 52 85 0.0 0.0 0.00 0.00 0.00 89 1013.3
20260504231901 52 85 0.0 0.0 0.00 0.00 0.00 89 1013.3
20260504231802 52 85 0.0 0.0 0.00 0.00 0.00 89 1013.3
20260504231702 52 85 0.0 0.0 0.00 0.00 0.00 89 1013.4
20260504231601 52 85 0.0 0.0 0.00 0.00 0.00 89 1013.3
20260504231502 52 85 0.0 0.0 0.00 0.00 0.00 89 1013.4
20260504231401 52 82 0.0 0.0 0.00 0.00 0.00 89 1013.4
20260504231302 52 82 0.0 0.0 0.00 0.00 0.00 89 1013.3
20260504231201 52 75 0.0 0.0 0.00 0.00 0.00 89 1013.4
20260504231102 52 75 0.0 0.0 0.00 0.00 0.00 89 1013.3
20260504231001 52 75 0.0 0.0 0.00 0.00 0.00 89 1013.3
20260504230902 52 52 0.0 0.0 0.00 0.00 0.00 89 1013.4
20260504230803 52 52 0.0 0.0 0.00 0.00 0.00 89 1013.4
20260504230701 52 357 0.0 0.0 0.00 0.00 0.00 89 1013.4
20260504230602 52 357 0.0 0.0 0.00 0.00 0.00 89 1013.4
20260504230502 52 357 0.0 0.0 0.00 0.00 0.00 89 1013.3
20260504230402 52 260 0.0 0.0 0.00 0.00 0.00 89 1013.3
20260504230301 52 260 0.0 0.0 0.00 0.00 0.00 89 1013.3
20260504230202 52 215 0.0 0.0 0.00 0.00 0.00 89 1013.3
20260504230002 52 215 0.0 0.0 0.00 0.00 0.00 89 1013.3
20260504225902 52 215 0.0 0.0 0.00 0.00 0.00 89 1013.3
20260504225801 52 215 0.0 0.0 0.00 0.00 0.00 89 1013.3
20260504225702 52 217 0.0 0.0 0.00 0.00 0.00 89 1013.3
20260504225601 52 217 0.0 0.0 0.00 0.00 0.00 89 1013.3
20260504225502 52 217 0.0 0.0 0.00 0.00 0.00 89 1013.3
20260504225402 52 217 0.0 0.0 0.00 0.00 0.00 89 1013.3
20260504225304 52 217 0.0 0.0 0.00 0.00 0.00 89 1013.3
20260504225202 52 217 0.0 0.0 0.00 0.00 0.00 89 1013.4
20260504225102 52 217 0.0 0.0 0.00 0.00 0.00 89 1013.3
20260504225002 52 217 0.0 0.0 0.00 0.00 0.00 89 1013.3
20260504224901 52 222 0.0 0.0 0.00 0.00 0.00 89 1013.3
20260504224802 52 222 0.0 0.0 0.00 0.00 0.00 89 1013.3
20260504224701 52 192 0.0 0.0 0.00 0.00 0.00 89 1013.3
20260504224602 52 192 0.0 0.0 0.00 0.00 0.00 89 1013.3
20260504224501 52 155 0.0 0.0 0.00 0.00 0.00 89 1013.3
20260504224402 52 155 0.0 0.0 0.00 0.00 0.00 89 1013.4
20260504224301 52 155 0.0 0.0 0.00 0.00 0.00 89 1013.4
20260504224202 52 162 0.0 0.0 0.00 0.00 0.00 89 1013.4
20260504224102 52 162 0.0 0.0 0.00 0.00 0.00 89 1013.4
20260504224001 52 162 0.0 0.0 0.00 0.00 0.00 89 1013.4
20260504223902 52 180 0.0 0.0 0.00 0.00 0.00 89 1013.4
20260504223801 52 180 0.0 0.0 0.00 0.00 0.00 89 1013.4
20260504223702 52 215 0.0 0.0 0.00 0.00 0.00 89 1013.4
20260504223602 52 215 0.0 0.0 0.00 0.00 0.00 89 1013.4
20260504223502 52 207 0.0 0.0 0.00 0.00 0.00 89 1013.4
20260504223402 52 207 0.0 0.0 0.00 0.00 0.00 89 1013.4
20260504223301 52 207 0.0 0.0 0.00 0.00 0.00 89 1013.4
20260504223202 52 207 0.0 0.0 0.00 0.00 0.00 89 1013.4
20260504223101 52 207 0.0 0.0 0.00 0.00 0.00 89 1013.4
20260504223002 52 197 0.0 0.0 0.00 0.00 0.00 89 1013.4
20260504222901 52 197 0.0 0.0 0.00 0.00 0.00 89 1013.4
20260504222802 52 197 0.0 0.0 0.00 0.00 0.00 89 1013.4
20260504222702 52 190 0.0 0.0 0.00 0.00 0.00 89 1013.4
20260504222602 52 190 0.0 0.0 0.00 0.00 0.00 89 1013.4
20260504222502 52 190 0.0 0.0 0.00 0.00 0.00 89 1013.4
20260504222401 52 190 0.0 0.0 0.00 0.00 0.00 89 1013.4
20260504222302 52 190 0.0 0.0 0.00 0.00 0.00 89 1013.4
20260504222201 53 180 0.0 0.0 0.00 0.00 0.00 89 1013.4
20260504222102 53 180 0.0 0.0 0.00 0.00 0.00 89 1013.4
20260504222001 53 180 0.0 0.0 0.00 0.00 0.00 89 1013.4
20260504221902 53 210 4.0 0.0 0.00 0.00 0.00 89 1013.4
20260504221801 53 210 4.0 0.0 0.00 0.00 0.00 89 1013.4
20260504221701 53 210 4.0 0.0 0.00 0.00 0.00 89 1013.4
20260504221602 53 215 3.0 0.0 0.00 0.00 0.00 89 1013.4
20260504221501 53 215 3.0 0.0 0.00 0.00 0.00 89 1013.3
20260504221402 53 200 2.0 0.0 0.00 0.00 0.00 89 1013.4
20260504221301 53 200 2.0 0.0 0.00 0.00 0.00 89 1013.4
20260504221202 53 205 0.0 0.0 0.00 0.00 0.00 89 1013.4
20260504221102 53 205 0.0 0.0 0.00 0.00 0.00 89 1013.4
20260504221002 53 205 0.0 0.0 0.00 0.00 0.00 89 1013.4
20260504220902 53 187 0.0 0.0 0.00 0.00 0.00 89 1013.5
20260504220801 53 187 0.0 0.0 0.00 0.00 0.00 89 1013.5
20260504220702 53 187 0.0 0.0 0.00 0.00 0.00 89 1013.5
20260504220601 53 187 0.0 0.0 0.00 0.00 0.00 89 1013.4
20260504220502 53 187 0.0 0.0 0.00 0.00 0.00 89 1013.5
20260504220402 53 222 3.0 0.0 0.00 0.00 0.00 90 1013.5
20260504220302 53 222 3.0 0.0 0.00 0.00 0.00 90 1013.5
20260504220202 53 222 3.0 0.0 0.00 0.00 0.00 90 1013.4
20260504220002 53 222 3.0 0.0 0.00 0.00 0.00 90 1013.4
20260504215901 53 222 3.0 0.0 0.00 0.00 0.00 90 1013.4
20260504215802 53 222 3.0 0.0 0.00 0.00 0.00 90 1013.4
20260504215701 53 222 3.0 0.0 0.00 0.00 0.00 90 1013.4
20260504215602 53 215 4.0 0.0 0.00 0.00 0.00 90 1013.4
20260504215501 53 215 4.0 0.0 0.00 0.00 0.00 90 1013.4
20260504215402 53 215 4.0 0.0 0.00 0.00 0.00 90 1013.5
20260504215304 53 215 2.0 0.0 0.00 0.00 0.00 90 1013.5
20260504215201 53 215 2.0 0.0 0.00 0.00 0.00 90 1013.5
20260504215102 53 220 4.0 0.0 0.00 0.00 0.00 90 1013.5
20260504215001 53 220 4.0 0.0 0.00 0.00 0.00 90 1013.6
20260504214902 53 225 0.0 0.0 0.00 0.00 0.00 90 1013.6
20260504214802 53 225 0.0 0.0 0.00 0.00 0.00 90 1013.6
20260504214702 53 225 0.0 0.0 0.00 0.00 0.00 90 1013.6
20260504214601 53 205 3.0 0.0 0.00 0.00 0.00 90 1013.7
20260504214502 53 205 3.0 0.0 0.00 0.00 0.00 90 1013.6
20260504214402 53 210 4.0 0.0 0.00 0.00 0.00 90 1013.7
20260504214301 53 210 4.0 0.0 0.00 0.00 0.00 90 1013.7
20260504214202 53 210 4.0 0.0 0.00 0.00 0.00 90 1013.7
20260504214101 53 210 4.0 0.0 0.00 0.00 0.00 90 1013.7
20260504214002 53 205 0.0 0.0 0.00 0.00 0.00 90 1013.7
20260504213901 53 205 0.0 0.0 0.00 0.00 0.00 90 1013.8
20260504213802 53 215 0.0 0.0 0.00 0.00 0.00 90 1013.8
20260504213702 53 215 0.0 0.0 0.00 0.00 0.00 90 1013.8
20260504213601 53 212 0.0 0.0 0.00 0.00 0.00 90 1013.8
20260504213502 53 212 0.0 0.0 0.00 0.00 0.00 90 1013.8
20260504213401 53 212 0.0 0.0 0.00 0.00 0.00 90 1013.8
20260504213302 53 220 0.0 0.0 0.00 0.00 0.00 90 1013.8
20260504213201 53 220 0.0 0.0 0.00 0.00 0.00 90 1013.8
20260504213102 53 220 0.0 0.0 0.00 0.00 0.00 90 1013.9
20260504213001 53 217 0.0 0.0 0.00 0.00 0.00 90 1013.9
20260504212902 53 217 0.0 0.0 0.00 0.00 0.00 90 1013.9
20260504212802 53 207 0.0 0.0 0.00 0.00 0.00 90 1013.9
20260504212702 53 207 0.0 0.0 0.00 0.00 0.00 90 1013.9
20260504212602 53 220 0.0 0.0 0.00 0.00 0.00 90 1013.9
20260504212501 53 220 0.0 0.0 0.00 0.00 0.00 90 1014.0
20260504212402 53 220 0.0 0.0 0.00 0.00 0.00 90 1013.9
20260504212303 53 220 0.0 0.0 0.00 0.00 0.00 90 1013.9
20260504212202 53 220 0.0 0.0 0.00 0.00 0.00 90 1014.0
20260504212102 53 220 0.0 0.0 0.00 0.00 0.00 90 1014.0
20260504212001 53 215 0.0 0.0 0.00 0.00 0.00 90 1014.0
20260504211902 53 215 0.0 0.0 0.00 0.00 0.00 90 1014.0
20260504211801 53 215 0.0 0.0 0.00 0.00 0.00 90 1014.0
20260504211702 53 215 0.0 0.0 0.00 0.00 0.00 90 1014.0
20260504211601 53 210 3.0 0.0 0.00 0.00 0.00 90 1014.0
20260504211502 53 210 3.0 0.0 0.00 0.00 0.00 90 1014.0
20260504211401 53 210 3.0 0.0 0.00 0.00 0.00 90 1014.1
20260504211302 53 210 3.0 0.0 0.00 0.00 0.00 90 1014.1
20260504211202 53 210 3.0 0.0 0.00 0.00 0.00 90 1014.1
20260504211101 53 212 0.0 0.0 0.00 0.00 0.00 90 1014.1
20260504211002 53 212 0.0 0.0 0.00 0.00 0.00 90 1014.1
20260504210901 53 212 0.0 0.0 0.00 0.00 0.00 90 1014.1
20260504210802 53 210 0.0 0.0 0.00 0.00 0.00 90 1014.1
20260504210701 53 210 0.0 0.0 0.00 0.00 0.00 90 1014.2
20260504210602 53 210 0.0 0.0 0.00 0.00 0.00 90 1014.2
20260504210502 53 210 0.0 0.0 0.00 0.00 0.00 90 1014.2
20260504210402 53 210 0.0 0.0 0.00 0.00 0.00 90 1014.2
20260504210302 53 200 0.0 0.0 0.00 0.00 0.00 90 1014.2
20260504210201 53 200 0.0 0.0 0.00 0.00 0.00 90 1014.2
20260504210001 53 227 0.0 0.0 0.00 0.00 0.00 90 1014.2
20260504205902 53 227 0.0 0.0 0.00 0.00 0.00 90 1014.2
20260504205802 53 225 0.0 0.0 0.00 0.00 0.00 90 1014.2
20260504205702 53 225 0.0 0.0 0.00 0.00 0.00 90 1014.2
20260504205602 53 225 0.0 0.0 0.00 0.00 0.00 90 1014.3
20260504205501 53 225 0.0 0.0 0.00 0.00 0.00 90 1014.3
20260504205402 53 225 0.0 0.0 0.00 0.00 0.00 90 1014.3
20260504205301 53 210 0.0 0.0 0.00 0.00 0.00 89 1014.3
20260504205202 53 210 0.0 0.0 0.00 0.00 0.00 89 1014.3
20260504205101 53 200 0.0 0.0 0.00 0.00 0.00 89 1014.3
20260504205002 53 200 0.0 0.0 0.00 0.00 0.00 89 1014.3
20260504204902 53 200 0.0 0.0 0.00 0.00 0.00 89 1014.3
20260504204801 53 192 0.0 0.0 0.00 0.00 0.00 89 1014.3
20260504204702 53 192 0.0 0.0 0.00 0.00 0.00 89 1014.4
20260504204601 53 192 0.0 0.0 0.00 0.00 0.00 89 1014.4
20260504204502 53 222 0.0 0.0 0.00 0.00 0.00 89 1014.4
20260504204401 53 222 0.0 0.0 0.00 0.00 0.00 89 1014.4
20260504204302 53 222 0.0 0.0 0.00 0.00 0.00 89 1014.4
20260504204202 53 222 0.0 0.0 0.00 0.00 0.00 89 1014.4
20260504204102 53 222 0.0 0.0 0.00 0.00 0.00 89 1014.4
20260504204002 53 222 0.0 0.0 0.00 0.00 0.00 89 1014.4
20260504203901 53 222 0.0 0.0 0.00 0.00 0.00 89 1014.4
20260504203802 53 225 0.0 0.0 0.00 0.00 0.00 89 1014.4
20260504203701 53 225 0.0 0.0 0.00 0.00 0.00 89 1014.4
20260504203602 53 225 0.0 0.0 0.00 0.00 0.00 89 1014.4
20260504203502 53 240 0.0 0.0 0.00 0.00 0.00 89 1014.3
20260504203402 53 240 0.0 0.0 0.00 0.00 0.00 89 1014.4
20260504203302 53 240 0.0 0.0 0.00 0.00 0.00 89 1014.4
20260504203201 53 240 0.0 0.0 0.00 0.00 0.00 89 1014.5
20260504203102 53 240 0.0 0.0 0.00 0.00 0.00 89 1014.5
20260504203001 53 240 0.0 0.0 0.00 0.00 0.00 89 1014.5
20260504202902 53 240 0.0 0.0 0.00 0.00 0.00 89 1014.5
20260504202801 53 270 0.0 0.0 0.00 0.00 0.00 89 1014.5
20260504202702 53 270 0.0 0.0 0.00 0.00 0.00 89 1014.6
20260504202602 53 270 0.0 0.0 0.00 0.00 0.00 89 1014.6
20260504202502 53 262 0.0 0.0 0.00 0.00 0.00 89 1014.5
20260504202402 53 262 0.0 0.0 0.00 0.00 0.00 89 1014.5
20260504202301 53 262 0.0 0.0 0.00 0.00 0.00 89 1014.5
20260504202202 53 222 0.0 0.0 0.00 0.00 0.00 89 1014.5
20260504202101 53 222 0.0 0.0 0.00 0.00 0.00 89 1014.5
20260504202002 53 222 0.0 0.0 0.00 0.00 0.00 89 1014.5
20260504201902 53 222 0.0 0.0 0.00 0.00 0.00 89 1014.5
20260504201802 53 222 0.0 0.0 0.00 0.00 0.00 89 1014.5
20260504201702 53 247 0.0 0.0 0.00 0.00 0.00 89 1014.4
20260504201602 53 247 0.0 0.0 0.00 0.00 0.00 89 1014.4
20260504201502 53 247 0.0 0.0 0.00 0.00 0.00 89 1014.4
20260504201401 53 245 0.0 0.0 0.00 0.00 0.00 89 1014.4
20260504201302 53 245 0.0 0.0 0.00 0.00 0.00 89 1014.5
20260504201201 53 245 0.0 0.0 0.00 0.00 0.00 89 1014.5
20260504201102 53 245 0.0 0.0 0.00 0.00 0.00 89 1014.5
20260504201001 53 245 0.0 0.0 0.00 0.00 0.00 89 1014.5
20260504200902 53 245 0.0 0.0 0.00 0.00 0.00 89 1014.5
20260504200702 53 245 0.0 0.0 0.00 0.00 0.00 89 1014.4
20260504200602 53 245 0.0 0.0 0.00 0.00 0.00 89 1014.5
20260504200502 53 245 0.0 0.0 0.00 0.00 0.00 89 1014.5
20260504200402 53 245 0.0 0.0 0.00 0.00 0.00 89 1014.5
20260504200301 53 245 0.0 0.0 0.00 0.00 0.00 89 1014.4
20260504200202 53 245 0.0 0.0 0.00 0.00 0.00 89 1014.5
20260504200002 54 245 0.0 0.0 0.00 0.00 0.00 89 1014.4
20260504195901 54 245 0.0 0.0 0.00 0.00 0.00 89 1014.4
20260504195802 54 245 0.0 0.0 0.00 0.00 0.00 89 1014.4
20260504195702 54 245 0.0 0.0 0.00 0.00 0.00 89 1014.4
20260504195602 54 245 0.0 0.0 0.00 0.00 0.00 89 1014.3
20260504195502 54 245 0.0 0.0 0.00 0.00 0.00 89 1014.4
20260504195401 54 245 0.0 0.0 0.00 0.00 0.00 89 1014.4
20260504195304 54 245 0.0 0.0 0.00 0.00 0.00 89 1014.4
20260504195201 54 247 0.0 0.0 0.00 0.00 0.00 89 1014.4
20260504195102 54 247 0.0 0.0 0.00 0.00 0.00 89 1014.4
20260504195002 54 247 0.0 0.0 0.00 0.00 0.00 89 1014.3
20260504194901 54 87 0.0 0.0 0.00 0.00 0.00 89 1014.3
20260504194802 54 87 0.0 0.0 0.00 0.00 0.00 89 1014.4
20260504194701 54 5 0.0 0.0 0.00 0.00 0.00 89 1014.3
20260504194602 54 5 0.0 0.0 0.00 0.00 0.00 89 1014.3
20260504194502 54 60 0.0 0.0 0.00 0.00 0.00 89 1014.3
20260504194402 54 60 0.0 0.0 0.00 0.00 0.00 89 1014.3
20260504194302 54 60 0.0 0.0 0.00 0.00 0.00 89 1014.3
20260504194202 54 145 0.0 0.0 0.00 0.00 0.00 89 1014.2
20260504194101 54 145 0.0 0.0 0.00 0.00 0.00 89 1014.3
20260504194002 54 145 0.0 0.0 0.00 0.00 0.00 89 1014.3
20260504193901 54 195 0.0 0.0 0.00 0.00 0.00 89 1014.3
20260504193802 54 195 0.0 0.0 0.00 0.00 0.00 89 1014.2
20260504193702 54 202 0.0 0.0 0.00 0.00 0.00 89 1014.3
20260504193602 54 202 0.0 0.0 0.00 0.00 0.00 89 1014.2
20260504193502 54 217 0.0 0.0 0.00 0.00 0.00 89 1014.2
20260504193401 54 217 0.0 0.0 0.00 0.00 0.00 89 1014.2
20260504193302 54 217 0.0 0.0 0.00 0.00 0.00 89 1014.1
20260504193201 54 205 4.0 0.0 0.00 0.00 0.00 89 1014.1
20260504193102 54 205 4.0 0.0 0.00 0.00 0.00 89 1014.1
20260504193001 54 205 4.0 0.0 0.00 0.00 0.00 89 1014.1
20260504192937 54 205 5.0 0.0 0.00 0.00 0.00 89 1014.1
20260504192801 54 205 5.0 0.0 0.00 0.00 0.00 89 1014.0
20260504192702 54 205 5.0 0.0 0.00 0.00 0.00 89 1014.0
20260504192637 54 205 5.0 0.0 0.00 0.00 0.00 89 1014.0
20260504192501 54 205 5.0 0.0 0.00 0.00 0.00 89 1014.0
20260504192402 54 205 5.0 0.0 0.00 0.00 0.00 89 1014.0
20260504192301 54 205 5.0 0.0 0.00 0.00 0.00 89 1014.1
20260504192202 54 172 3.0 0.0 0.00 0.00 0.00 89 1014.1
20260504192101 54 172 3.0 0.0 0.00 0.00 0.00 89 1014.1
20260504192002 54 172 3.0 0.0 0.00 0.00 0.00 89 1014.1
20260504191902 54 147 0.0 0.0 0.00 0.00 0.00 89 1014.2
20260504191801 54 147 0.0 0.0 0.00 0.00 0.00 89 1014.2
20260504191702 54 147 0.0 0.0 0.00 0.00 0.00 89 1014.2
20260504191602 54 125 0.0 0.0 0.00 0.00 0.00 88 1014.2
20260504191502 54 125 0.0 0.0 0.00 0.00 0.00 88 1014.3
20260504191401 54 95 0.0 0.0 0.00 0.00 0.00 88 1014.3
20260504191302 54 95 0.0 0.0 0.00 0.00 0.00 88 1013.2
20260504191201 54 60 5.0 0.0 0.00 0.00 0.00 88 1013.2
20260504191102 54 60 5.0 0.0 0.00 0.00 0.00 88 1013.2
20260504191001 54 60 5.0 0.0 0.00 0.00 0.00 88 1013.2
20260504190902 54 60 5.0 0.0 0.00 0.00 0.00 88 1013.2
20260504190802 54 60 5.0 0.0 0.00 0.00 0.00 88 1013.2
20260504190702 55 55 3.0 0.0 0.00 0.00 0.00 87 1013.2
20260504190601 55 55 3.0 0.0 0.00 0.00 0.00 87 1013.2
20260504190501 55 55 3.0 0.0 0.00 0.00 0.00 87 1013.2
20260504190402 55 55 3.0 0.0 0.00 0.00 0.00 87 1013.2
20260504190301 55 55 3.0 0.0 0.00 0.00 0.00 87 1013.2
20260504190202 55 55 3.0 0.0 0.00 0.00 0.00 87 1013.2
20260504190002 55 60 4.0 0.0 0.00 0.00 0.00 87 1013.2
20260504185901 55 62 6.0 0.0 0.00 0.00 0.00 87 1013.2
20260504185801 55 62 6.0 0.0 0.00 0.00 0.00 87 1013.2
20260504185702 55 62 6.0 0.0 0.00 0.00 0.00 87 1013.2
20260504185601 55 57 6.0 0.0 0.00 0.00 0.00 86 1013.2
20260504185502 55 57 6.0 0.0 0.00 0.00 0.00 86 1013.2
20260504185401 55 57 6.0 0.0 0.00 0.00 0.00 86 1013.2
20260504185304 55 62 8.0 0.0 0.00 0.00 0.00 86 1013.2
20260504185202 55 62 8.0 0.0 0.00 0.00 0.00 86 1013.2
20260504185102 55 75 7.0 0.0 0.00 0.00 0.00 86 1013.2
20260504185002 55 75 7.0 0.0 0.00 0.00 0.00 86 1013.2
20260504184902 55 80 3.0 0.0 0.00 0.00 0.00 86 1013.2
20260504184802 55 75 6.0 0.0 0.00 0.00 0.00 85 1013.2
20260504184701 55 75 6.0 0.0 0.00 0.00 0.00 85 1013.2
20260504184602 56 62 8.0 0.0 0.00 0.00 0.00 84 1013.2
20260504184501 56 62 8.0 0.0 0.00 0.00 0.00 84 1013.2
20260504184402 56 62 8.0 0.0 0.00 0.00 0.00 84 1013.2
20260504184301 56 62 8.0 0.0 0.00 0.00 0.00 84 1013.2
20260504184202 56 62 8.0 0.0 0.00 0.00 0.00 84 1013.2
20260504184101 56 62 8.0 0.0 0.00 0.00 0.00 84 1013.2
20260504184002 56 62 8.0 0.0 0.00 0.00 0.00 84 1013.2
20260504183901 56 62 8.0 0.0 0.00 0.00 0.00 84 1013.2
20260504183802 56 75 5.0 0.0 0.00 0.00 0.00 83 1013.2
20260504183703 56 75 5.0 0.0 0.00 0.00 0.00 83 1013.2
20260504183602 56 75 5.0 0.0 0.00 0.00 0.00 83 1013.2
20260504183502 56 75 5.0 0.0 0.00 0.00 0.00 83 1013.2
20260504183401 56 75 5.0 0.0 0.00 0.00 0.00 83 1013.2
20260504183302 56 75 5.0 0.0 0.00 0.00 0.00 83 1013.2
20260504183202 56 75 5.0 0.0 0.00 0.00 0.00 83 1013.2
20260504183102 56 75 5.0 0.0 0.00 0.00 0.00 83 1013.2
20260504183001 57 75 6.0 0.0 0.00 0.00 0.00 82 1013.2
20260504182902 57 75 6.0 0.0 0.00 0.00 0.00 82 1013.2
20260504182801 57 75 6.0 0.0 0.00 0.00 0.00 82 1013.2
20260504182702 57 75 6.0 0.0 0.00 0.00 0.00 82 1013.2
20260504182601 57 77 4.0 0.0 0.00 0.00 0.00 82 1013.2
20260504182502 57 77 4.0 0.0 0.00 0.00 0.00 82 1013.2
20260504182402 57 77 4.0 0.0 0.00 0.00 0.00 82 1013.2
20260504182301 57 80 0.0 0.0 0.00 0.00 0.00 82 1013.2
20260504182202 57 80 0.0 0.0 0.00 0.00 0.00 82 1013.2
20260504182101 57 80 0.0 0.0 0.00 0.00 0.00 82 1013.2
20260504182002 57 80 0.0 0.0 0.00 0.00 0.00 82 1013.2
20260504181901 57 80 0.0 0.0 0.00 0.00 0.00 82 1013.2
20260504181802 57 82 4.0 0.0 0.00 0.00 0.00 82 1013.2
20260504181702 57 82 4.0 0.0 0.00 0.00 0.00 82 1013.2
20260504181601 57 82 0.0 0.0 0.00 0.00 0.00 81 1013.2
20260504181502 57 82 0.0 0.0 0.00 0.00 0.00 81 1013.2
20260504181401 57 82 0.0 0.0 0.00 0.00 0.00 81 1013.2
20260504181302 57 90 6.0 0.0 0.00 0.00 0.00 81 1013.2
20260504181201 57 90 6.0 0.0 0.00 0.00 0.00 81 1013.2
20260504181102 57 92 6.0 0.0 0.00 0.00 0.00 81 1013.2
20260504181001 57 92 6.0 0.0 0.00 0.00 0.00 81 1013.2
20260504180902 57 92 6.0 0.0 0.00 0.00 0.00 81 1013.2
20260504180802 57 95 2.0 0.0 0.00 0.00 0.00 81 1013.2
20260504180702 57 95 2.0 0.0 0.00 0.00 0.00 81 1013.2
20260504180602 57 95 2.0 0.0 0.00 0.00 0.00 81 1013.2
20260504180502 57 145 0.0 0.0 0.00 0.00 0.00 81 1013.2
20260504180402 57 145 0.0 0.0 0.00 0.00 0.00 81 1013.2
20260504180301 57 145 0.0 0.0 0.00 0.00 0.00 81 1013.2
20260504180202 57 145 0.0 0.0 0.00 0.00 0.00 81 1013.2
20260504180002 57 165 0.0 0.0 0.00 0.00 0.00 81 1013.2
20260504175902 57 165 0.0 0.0 0.00 0.00 0.00 81 1013.2
20260504175801 57 165 0.0 0.0 0.00 0.00 0.00 81 1013.2
20260504175702 57 177 0.0 0.0 0.00 0.00 0.00 81 1013.2
20260504175601 57 177 0.0 0.0 0.00 0.00 0.00 81 1013.2
20260504175502 57 175 0.0 0.0 0.00 0.00 0.00 81 1013.2
20260504175401 57 175 0.0 0.0 0.00 0.00 0.00 81 1013.2
20260504175304 57 195 0.0 0.0 0.00 0.00 0.00 81 1013.2
20260504175202 57 195 0.0 0.0 0.00 0.00 0.00 81 1013.2
20260504175101 57 195 0.0 0.0 0.00 0.00 0.00 81 1013.2
20260504175002 57 195 0.0 0.0 0.00 0.00 0.00 81 1013.2
20260504174901 57 195 0.0 0.0 0.00 0.00 0.00 81 1013.2
20260504174802 57 192 0.0 0.0 0.00 0.00 0.00 80 1013.2
20260504174701 57 192 0.0 0.0 0.00 0.00 0.00 80 1013.2
20260504174602 57 192 0.0 0.0 0.00 0.00 0.00 80 1013.2
20260504174502 57 210 0.0 0.0 0.00 0.00 0.00 80 1013.2
20260504174402 57 210 0.0 0.0 0.00 0.00 0.00 80 1013.2
20260504174302 58 140 0.0 0.0 0.00 0.00 0.00 80 1013.2
20260504174201 58 140 0.0 0.0 0.00 0.00 0.00 80 1013.2
20260504174102 58 140 0.0 0.0 0.00 0.00 0.00 80 1013.2
20260504174001 58 140 0.0 0.0 0.00 0.00 0.00 80 1013.2
20260504173902 58 140 0.0 0.0 0.00 0.00 0.00 80 1013.2
20260504173801 58 140 0.0 0.0 0.00 0.00 0.00 80 1013.2
20260504173702 58 132 0.0 0.0 0.00 0.00 0.00 79 1013.2
20260504173602 58 132 0.0 0.0 0.00 0.00 0.00 79 1013.2
20260504173502 58 210 0.0 0.0 0.00 0.00 0.00 79 1013.2
20260504173402 58 210 0.0 0.0 0.00 0.00 0.00 79 1013.2
20260504173303 58 210 0.0 0.0 0.00 0.00 0.00 79 1013.2
20260504173202 58 250 0.0 0.0 0.00 0.00 0.00 78 1013.2
20260504173102 58 250 0.0 0.0 0.00 0.00 0.00 78 1013.2
20260504173001 58 250 0.0 0.0 0.00 0.00 0.00 78 1013.2
20260504172902 58 250 0.0 0.0 0.00 0.00 0.00 78 1013.2
20260504172801 58 285 0.0 0.0 0.00 0.00 0.00 79 1013.2
20260504172702 58 285 0.0 0.0 0.00 0.00 0.00 79 1013.2
20260504172601 58 285 0.0 0.0 0.00 0.00 0.00 79 1013.2
20260504172502 58 327 0.0 0.0 0.00 0.00 0.00 78 1013.2
20260504172402 58 327 0.0 0.0 0.00 0.00 0.00 78 1013.2
20260504172301 58 327 0.0 0.0 0.00 0.00 0.00 78 1013.2
20260504172202 58 327 0.0 0.0 0.00 0.00 0.00 78 1013.2
20260504172101 58 327 0.0 0.0 0.00 0.00 0.00 78 1013.2
20260504172002 58 332 0.0 0.0 0.00 0.00 0.00 78 1013.2
20260504171902 58 340 0.0 0.0 0.00 0.00 0.00 79 1013.2
20260504171802 58 340 0.0 0.0 0.00 0.00 0.00 79 1013.2
20260504171701 58 340 0.0 0.0 0.00 0.00 0.00 79 1013.2
20260504171602 58 340 0.0 0.0 0.00 0.00 0.00 79 1013.2
20260504171502 58 340 0.0 0.0 0.00 0.00 0.00 79 1013.2
20260504171401 58 0 3.0 0.0 0.00 0.00 0.00 79 1013.2
20260504171302 58 0 3.0 0.0 0.00 0.00 0.00 79 1013.2
20260504171201 58 0 3.0 0.0 0.00 0.00 0.00 79 1013.2
20260504171102 58 12 0.0 0.0 0.00 0.00 0.00 79 1013.2
20260504171001 58 12 0.0 0.0 0.00 0.00 0.00 79 1013.2
20260504170902 58 20 6.0 0.0 0.00 0.00 0.00 79 1013.2
20260504170801 58 20 6.0 0.0 0.00 0.00 0.00 79 1013.2
20260504170702 59 25 6.0 0.0 0.00 0.00 0.00 78 1013.2
20260504170601 59 25 6.0 0.0 0.00 0.00 0.00 78 1013.2
20260504170502 59 25 6.0 0.0 0.00 0.00 0.00 78 1013.2
20260504170402 59 30 8.0 0.0 0.00 0.00 0.00 77 1013.2
20260504170301 59 30 8.0 0.0 0.00 0.00 0.00 77 1013.2
20260504170202 59 30 8.0 0.0 0.00 0.00 0.00 77 1013.2
20260504160402 62 80 4.0 0.0 0.00 0.00 0.00 68 1013.1
20260504160301 62 80 4.0 0.0 0.00 0.00 0.00 68 1013.1
20260504160202 62 80 4.0 0.0 0.00 0.00 0.00 68 1013.1
20260504151102 64 70 5.0 0.0 0.00 0.00 0.00 62 1013.2
20260504151002 64 70 5.0 0.0 0.00 0.00 0.00 62 1013.2
20260504150902 64 70 5.0 0.0 0.00 0.00 0.00 62 1013.3
20260504150801 64 70 5.0 0.0 0.00 0.00 0.00 62 1013.2
20260504150702 65 67 4.0 0.0 0.00 0.00 0.00 63 1013.2
20260504150601 65 67 4.0 0.0 0.00 0.00 0.00 63 1013.2
20260504150502 65 62 6.0 0.0 0.00 0.00 0.00 59 1013.2
20260504150401 65 62 6.0 0.0 0.00 0.00 0.00 59 1013.2
20260504150302 65 12 0.0 0.0 0.00 0.00 0.00 58 1013.2
20260504150202 65 12 0.0 0.0 0.00 0.00 0.00 58 1013.2
20260504141302 67 70 6.0 0.0 0.00 0.00 0.00 60 1013.6
20260504141202 67 62 8.0 0.0 0.00 0.00 0.00 60 1013.6
20260504141102 67 62 8.0 0.0 0.00 0.00 0.00 60 1013.6
20260504141002 67 62 8.0 0.0 0.00 0.00 0.00 60 1013.6
20260504140901 67 72 13.0 0.0 0.00 0.00 0.00 60 1013.6
20260504140802 66 10 4.0 0.0 0.00 0.00 0.00 61 1013.6
20260504140701 66 10 4.0 0.0 0.00 0.00 0.00 61 1013.6
20260504140602 66 10 4.0 0.0 0.00 0.00 0.00 61 1013.6
20260504140501 66 10 4.0 0.0 0.00 0.00 0.00 61 1013.7
20260504140402 66 10 4.0 0.0 0.00 0.00 0.00 61 1013.6
20260504140301 66 10 4.0 0.0 0.00 0.00 0.00 61 1013.6
20260504140202 65 62 0.0 0.0 0.00 0.00 0.00 60 1013.6
20260504130802 63 55 4.0 0.0 0.00 0.00 0.00 64 1013.9
20260504130702 63 55 4.0 0.0 0.00 0.00 0.00 64 1014.0
20260504130601 64 45 5.0 0.0 0.00 0.00 0.00 63 1014.0
20260504130502 64 45 5.0 0.0 0.00 0.00 0.00 63 1014.0
20260504130401 64 45 5.0 0.0 0.00 0.00 0.00 63 1014.0
20260504130302 64 7 0.0 0.0 0.00 0.00 0.00 63 1014.0
20260504130201 64 7 0.0 0.0 0.00 0.00 0.00 63 1014.0
20260504120302 62 32 6.0 0.0 0.00 0.00 0.00 69 1014.4
20260504120202 63 30 9.0 0.0 0.00 0.00 0.00 68 1014.3
20260504110702 60 25 7.0 0.0 0.00 0.00 0.00 74 1014.5
20260504110601 60 25 7.0 0.0 0.00 0.00 0.00 74 1014.5
20260504110502 60 25 7.0 0.0 0.00 0.00 0.00 74 1014.5
20260504110402 60 37 6.0 0.0 0.00 0.00 0.00 73 1014.5
20260504110302 60 37 6.0 0.0 0.00 0.00 0.00 73 1014.6
20260504110202 60 57 6.0 0.0 0.00 0.00 0.00 73 1014.5
20260504100602 61 20 6.0 0.0 0.00 0.00 0.00 74 1014.9
20260504100502 61 20 6.0 0.0 0.00 0.00 0.00 74 1014.9
20260504100402 61 20 6.0 0.0 0.00 0.00 0.00 74 1014.9
20260504100302 61 27 6.0 0.0 0.00 0.00 0.00 75 1014.9
20260504100201 61 32 15.0 0.0 0.00 0.00 0.00 75 1014.9
20260504082002 55 67 7.0 0.0 0.00 0.00 0.00 80 1015.1
20260504081902 55 67 7.0 0.0 0.00 0.00 0.00 80 1015.1
20260504081802 55 67 7.0 0.0 0.00 0.00 0.00 80 1015.1
20260504081702 55 45 8.0 0.0 0.00 0.00 0.00 80 1015.1
20260504081601 55 45 8.0 0.0 0.00 0.00 0.00 80 1015.1
20260504081502 55 45 8.0 0.0 0.00 0.00 0.00 80 1015.1
20260504081401 55 45 5.0 0.0 0.00 0.00 0.00 79 1015.1
20260504081302 55 45 5.0 0.0 0.00 0.00 0.00 79 1015.1
20260504081202 55 57 6.0 0.0 0.00 0.00 0.00 80 1015.1
20260504081102 55 57 6.0 0.0 0.00 0.00 0.00 80 1015.1
20260504081002 55 57 6.0 0.0 0.00 0.00 0.00 80 1015.1
20260504080901 55 30 8.0 0.0 0.00 0.00 0.00 79 1015.1
20260504080802 55 30 8.0 0.0 0.00 0.00 0.00 79 1015.1
20260504080701 55 30 8.0 0.0 0.00 0.00 0.00 79 1015.1
20260504080602 55 30 8.0 0.0 0.00 0.00 0.00 79 1015.1
20260504080502 55 30 8.0 0.0 0.00 0.00 0.00 79 1015.1
20260504080402 55 30 8.0 0.0 0.00 0.00 0.00 79 1015.1
20260504080302 55 30 8.0 0.0 0.00 0.00 0.00 79 1015.1
20260504080201 55 30 8.0 0.0 0.00 0.00 0.00 79 1015.1
20260504070402 56 57 6.0 0.0 0.00 0.00 0.00 79 1014.3
20260504070301 55 60 6.0 0.0 0.00 0.00 0.00 78 1014.3
20260504070202 55 60 6.0 0.0 0.00 0.00 0.00 78 1014.2
20260504060202 53 32 6.0 0.0 0.00 0.00 0.00 78 1013.9
20260504050602 52 40 5.0 0.0 0.00 0.00 0.00 79 1013.6
20260504050501 52 40 5.0 0.0 0.00 0.00 0.00 79 1013.6
20260504050402 52 40 5.0 0.0 0.00 0.00 0.00 79 1013.6
20260504050301 52 37 6.0 0.0 0.00 0.00 0.00 78 1013.6
20260504050202 52 37 6.0 0.0 0.00 0.00 0.00 78 1013.6
20260504050002 52 22 5.0 0.0 0.00 0.00 0.00 78 1013.6
20260504045902 52 27 6.0 0.0 0.00 0.00 0.00 78 1013.6
20260504045801 52 27 6.0 0.0 0.00 0.00 0.00 78 1013.6
20260504045702 52 27 6.0 0.0 0.00 0.00 0.00 78 1013.6
20260504045601 52 37 5.0 0.0 0.00 0.00 0.00 78 1013.6
20260504045502 52 37 5.0 0.0 0.00 0.00 0.00 78 1013.6
20260504045402 52 42 5.0 0.0 0.00 0.00 0.00 78 1013.6
20260504045304 52 42 5.0 0.0 0.00 0.00 0.00 78 1013.5
20260504045202 52 42 5.0 0.0 0.00 0.00 0.00 78 1013.5
20260504045101 52 37 6.0 0.0 0.00 0.00 0.00 78 1013.6
20260504045002 52 37 6.0 0.0 0.00 0.00 0.00 78 1013.6
20260504044901 52 37 6.0 0.0 0.00 0.00 0.00 78 1013.6
20260504044802 52 40 4.0 0.0 0.00 0.00 0.00 78 1013.6
20260504044702 52 40 4.0 0.0 0.00 0.00 0.00 78 1013.6
20260504044602 52 40 4.0 0.0 0.00 0.00 0.00 78 1013.6
20260504044502 52 40 4.0 0.0 0.00 0.00 0.00 78 1013.5
20260504044401 52 40 4.0 0.0 0.00 0.00 0.00 78 1013.5
20260504044302 52 47 5.0 0.0 0.00 0.00 0.00 78 1013.6
20260504044201 52 47 5.0 0.0 0.00 0.00 0.00 78 1013.6
20260504044102 52 47 5.0 0.0 0.00 0.00 0.00 78 1013.6
20260504044002 52 50 6.0 0.0 0.00 0.00 0.00 78 1013.6
20260504043902 52 50 6.0 0.0 0.00 0.00 0.00 78 1013.6
20260504043802 52 50 5.0 0.0 0.00 0.00 0.00 78 1013.7
20260504043701 52 50 5.0 0.0 0.00 0.00 0.00 78 1013.6
20260504043602 52 50 5.0 0.0 0.00 0.00 0.00 78 1013.7
20260504043501 52 50 5.0 0.0 0.00 0.00 0.00 78 1013.7
20260504043402 52 50 5.0 0.0 0.00 0.00 0.00 78 1013.7
20260504043301 52 45 5.0 0.0 0.00 0.00 0.00 78 1013.6
20260504043202 52 45 5.0 0.0 0.00 0.00 0.00 78 1013.6
20260504043102 52 45 5.0 0.0 0.00 0.00 0.00 78 1013.6
20260504043002 52 47 6.0 0.0 0.00 0.00 0.00 78 1013.7
20260504042902 52 47 6.0 0.0 0.00 0.00 0.00 78 1013.6
20260504042801 52 47 6.0 0.0 0.00 0.00 0.00 78 1013.6
20260504042702 52 47 6.0 0.0 0.00 0.00 0.00 78 1013.6
20260504042601 52 45 5.0 0.0 0.00 0.00 0.00 78 1013.5
20260504042502 52 45 5.0 0.0 0.00 0.00 0.00 78 1013.6
20260504042402 52 45 5.0 0.0 0.00 0.00 0.00 78 1013.5
20260504042304 52 50 8.0 0.0 0.00 0.00 0.00 78 1013.6
20260504042201 52 50 8.0 0.0 0.00 0.00 0.00 78 1013.6
20260504042101 52 50 8.0 0.0 0.00 0.00 0.00 78 1013.5
20260504042002 52 50 8.0 0.0 0.00 0.00 0.00 78 1013.5
20260504041901 52 50 8.0 0.0 0.00 0.00 0.00 78 1013.5
20260504041802 52 50 8.0 0.0 0.00 0.00 0.00 78 1013.5
20260504041701 52 50 8.0 0.0 0.00 0.00 0.00 78 1013.5
20260504041602 52 50 8.0 0.0 0.00 0.00 0.00 78 1013.4
20260504041501 52 35 5.0 0.0 0.00 0.00 0.00 78 1013.5
20260504041402 52 35 5.0 0.0 0.00 0.00 0.00 78 1013.5
20260504041302 52 37 6.0 0.0 0.00 0.00 0.00 77 1013.4
20260504041201 52 37 6.0 0.0 0.00 0.00 0.00 77 1013.5
20260504041102 52 37 6.0 0.0 0.00 0.00 0.00 77 1013.4
20260504041001 53 42 6.0 0.0 0.00 0.00 0.00 77 1013.5
20260504040902 53 42 6.0 0.0 0.00 0.00 0.00 77 1013.5
20260504040801 52 50 6.0 0.0 0.00 0.00 0.00 78 1013.5
20260504040702 52 50 6.0 0.0 0.00 0.00 0.00 78 1013.5
20260504040601 52 50 6.0 0.0 0.00 0.00 0.00 78 1013.5
20260504040502 52 50 5.0 0.0 0.00 0.00 0.00 77 1013.5
20260504040401 52 50 5.0 0.0 0.00 0.00 0.00 77 1013.5
20260504040301 52 55 8.0 0.0 0.00 0.00 0.00 77 1013.5
20260504040202 52 55 8.0 0.0 0.00 0.00 0.00 77 1013.5
20260504040002 53 55 6.0 0.0 0.00 0.00 0.00 77 1013.4
20260504035901 53 55 6.0 0.0 0.00 0.00 0.00 77 1013.5
20260504035802 52 40 7.0 0.0 0.00 0.00 0.00 77 1013.5
20260504035702 52 40 7.0 0.0 0.00 0.00 0.00 77 1013.5
20260504035602 52 40 7.0 0.0 0.00 0.00 0.00 77 1013.4
20260504035502 52 37 7.0 0.0 0.00 0.00 0.00 77 1013.4
20260504035401 52 37 7.0 0.0 0.00 0.00 0.00 77 1013.5
20260504035302 52 42 6.0 0.0 0.00 0.00 0.00 78 1013.5
20260504035201 52 42 6.0 0.0 0.00 0.00 0.00 78 1013.4
20260504035102 52 42 6.0 0.0 0.00 0.00 0.00 78 1013.4
20260504035001 52 35 5.0 0.0 0.00 0.00 0.00 78 1013.4
20260504034902 52 35 5.0 0.0 0.00 0.00 0.00 78 1013.5
20260504034802 52 35 5.0 0.0 0.00 0.00 0.00 78 1013.4
20260504034702 52 35 5.0 0.0 0.00 0.00 0.00 78 1013.4
20260504034602 52 35 5.0 0.0 0.00 0.00 0.00 78 1013.4
20260504034502 52 40 6.0 0.0 0.00 0.00 0.00 78 1013.4
20260504034402 52 40 6.0 0.0 0.00 0.00 0.00 78 1013.4
20260504034301 52 40 5.0 0.0 0.00 0.00 0.00 78 1013.4
20260504034202 52 40 5.0 0.0 0.00 0.00 0.00 78 1013.4
20260504034101 52 40 5.0 0.0 0.00 0.00 0.00 78 1013.4
20260504034002 52 35 5.0 0.0 0.00 0.00 0.00 78 1013.4
20260504033901 52 35 5.0 0.0 0.00 0.00 0.00 78 1013.4
20260504033802 52 35 5.0 0.0 0.00 0.00 0.00 78 1013.4
20260504033701 52 47 5.0 0.0 0.00 0.00 0.00 78 1013.4
20260504033602 52 47 5.0 0.0 0.00 0.00 0.00 78 1013.4
20260504033502 52 47 5.0 0.0 0.00 0.00 0.00 78 1013.4
20260504033401 52 47 5.0 0.0 0.00 0.00 0.00 78 1013.4
20260504033302 52 67 5.0 0.0 0.00 0.00 0.00 78 1013.3
20260504033201 52 67 5.0 0.0 0.00 0.00 0.00 78 1013.3
20260504033102 52 67 5.0 0.0 0.00 0.00 0.00 78 1013.3
20260504033001 52 47 5.0 0.0 0.00 0.00 0.00 78 1013.3
20260504032902 52 47 5.0 0.0 0.00 0.00 0.00 78 1013.3
20260504032802 52 47 5.0 0.0 0.00 0.00 0.00 78 1013.3
20260504032702 52 47 5.0 0.0 0.00 0.00 0.00 78 1013.3
20260504032602 52 47 5.0 0.0 0.00 0.00 0.00 78 1013.3
20260504032501 52 47 5.0 0.0 0.00 0.00 0.00 78 1013.3
20260504032402 52 47 5.0 0.0 0.00 0.00 0.00 78 1013.3
20260504032303 52 47 5.0 0.0 0.00 0.00 0.00 78 1013.3
20260504032202 52 47 5.0 0.0 0.00 0.00 0.00 78 1013.3
20260504032102 52 47 5.0 0.0 0.00 0.00 0.00 78 1013.3
20260504032002 52 37 6.0 0.0 0.00 0.00 0.00 78 1013.3
20260504031902 52 37 6.0 0.0 0.00 0.00 0.00 78 1013.3
20260504031801 52 37 6.0 0.0 0.00 0.00 0.00 78 1013.3
20260504031702 52 37 4.0 0.0 0.00 0.00 0.00 78 1013.3
20260504031601 52 37 4.0 0.0 0.00 0.00 0.00 78 1013.2
20260504031502 52 37 4.0 0.0 0.00 0.00 0.00 78 1013.3
20260504031401 51 55 4.0 0.0 0.00 0.00 0.00 78 1013.3
20260504031302 51 55 4.0 0.0 0.00 0.00 0.00 78 1013.3
20260504031202 51 60 4.0 0.0 0.00 0.00 0.00 78 1013.4
20260504031102 51 60 4.0 0.0 0.00 0.00 0.00 78 1013.3
20260504031002 51 62 3.0 0.0 0.00 0.00 0.00 78 1013.3
20260504030901 51 62 3.0 0.0 0.00 0.00 0.00 78 1013.3
20260504030802 51 62 3.0 0.0 0.00 0.00 0.00 78 1013.3
20260504030701 51 57 4.0 0.0 0.00 0.00 0.00 78 1013.3
20260504030602 51 57 4.0 0.0 0.00 0.00 0.00 78 1013.4
20260504030501 51 57 4.0 0.0 0.00 0.00 0.00 78 1013.3
20260504030402 51 55 4.0 0.0 0.00 0.00 0.00 78 1013.3
20260504030302 51 55 4.0 0.0 0.00 0.00 0.00 78 1013.4
20260504030201 51 55 4.0 0.0 0.00 0.00 0.00 78 1013.4
20260504030001 51 57 5.0 0.0 0.00 0.00 0.00 79 1013.4
20260504025902 51 45 4.0 0.0 0.00 0.00 0.00 79 1013.4
20260504025802 51 45 4.0 0.0 0.00 0.00 0.00 79 1013.4
20260504025702 51 45 4.0 0.0 0.00 0.00 0.00 79 1013.3
20260504025602 51 57 5.0 0.0 0.00 0.00 0.00 79 1013.4
20260504025501 51 57 5.0 0.0 0.00 0.00 0.00 79 1013.4
20260504025402 51 50 4.0 0.0 0.00 0.00 0.00 79 1013.5
20260504025304 51 50 4.0 0.0 0.00 0.00 0.00 79 1013.4
20260504025202 51 50 4.0 0.0 0.00 0.00 0.00 79 1013.4
20260504025102 51 62 3.0 0.0 0.00 0.00 0.00 79 1013.5
20260504025002 51 62 3.0 0.0 0.00 0.00 0.00 79 1013.4
20260504024902 51 62 3.0 0.0 0.00 0.00 0.00 79 1013.4
20260504024801 51 62 3.0 0.0 0.00 0.00 0.00 79 1013.4
20260504024702 51 62 3.0 0.0 0.00 0.00 0.00 79 1013.4
20260504024601 51 55 4.0 0.0 0.00 0.00 0.00 79 1013.4
20260504024502 51 55 4.0 0.0 0.00 0.00 0.00 79 1013.5
20260504024401 51 47 4.0 0.0 0.00 0.00 0.00 79 1013.5
20260504024302 51 47 4.0 0.0 0.00 0.00 0.00 79 1013.5
20260504024201 51 47 4.0 0.0 0.00 0.00 0.00 79 1013.5
20260504024102 51 57 4.0 0.0 0.00 0.00 0.00 79 1013.5
20260504024002 51 57 4.0 0.0 0.00 0.00 0.00 79 1013.5
20260504023901 51 72 4.0 0.0 0.00 0.00 0.00 79 1013.4
20260504023802 51 72 4.0 0.0 0.00 0.00 0.00 79 1013.5
20260504023701 51 72 4.0 0.0 0.00 0.00 0.00 79 1013.4
20260504023602 51 45 5.0 0.0 0.00 0.00 0.00 79 1013.5
20260504023501 51 45 5.0 0.0 0.00 0.00 0.00 79 1013.5
20260504023401 51 45 5.0 0.0 0.00 0.00 0.00 79 1013.5
20260504023302 51 45 5.0 0.0 0.00 0.00 0.00 79 1013.5
20260504023201 51 45 5.0 0.0 0.00 0.00 0.00 79 1013.5
20260504023102 50 60 5.0 0.0 0.00 0.00 0.00 79 1013.5
20260504023002 50 60 5.0 0.0 0.00 0.00 0.00 79 1013.5
20260504022902 50 60 5.0 0.0 0.00 0.00 0.00 79 1013.6
20260504022802 50 67 4.0 0.0 0.00 0.00 0.00 79 1013.5
20260504022701 50 67 4.0 0.0 0.00 0.00 0.00 79 1013.5
20260504022602 50 62 4.0 0.0 0.00 0.00 0.00 79 1013.5
20260504022501 50 62 4.0 0.0 0.00 0.00 0.00 79 1013.5
20260504022402 50 67 4.0 0.0 0.00 0.00 0.00 79 1013.5
20260504022301 50 67 4.0 0.0 0.00 0.00 0.00 79 1013.5
20260504022202 50 67 4.0 0.0 0.00 0.00 0.00 79 1013.5
20260504022102 51 75 4.0 0.0 0.00 0.00 0.00 79 1013.5
20260504022001 51 75 4.0 0.0 0.00 0.00 0.00 79 1013.5
20260504021902 51 75 4.0 0.0 0.00 0.00 0.00 79 1013.5
20260504021801 51 77 5.0 0.0 0.00 0.00 0.00 79 1013.5
20260504021702 51 77 5.0 0.0 0.00 0.00 0.00 79 1013.5
20260504021602 51 72 5.0 0.0 0.00 0.00 0.00 79 1013.5
20260504021502 51 72 5.0 0.0 0.00 0.00 0.00 79 1013.5
20260504021401 51 70 4.0 0.0 0.00 0.00 0.00 79 1013.5
20260504021302 51 70 4.0 0.0 0.00 0.00 0.00 79 1013.5
20260504021202 51 70 4.0 0.0 0.00 0.00 0.00 79 1013.4
20260504021101 51 72 3.0 0.0 0.00 0.00 0.00 79 1013.5
20260504021002 51 72 3.0 0.0 0.00 0.00 0.00 79 1013.5
20260504020902 51 72 3.0 0.0 0.00 0.00 0.00 79 1013.5
20260504020802 51 75 5.0 0.0 0.00 0.00 0.00 79 1013.5
20260504020701 51 75 5.0 0.0 0.00 0.00 0.00 79 1013.5
20260504020601 51 75 5.0 0.0 0.00 0.00 0.00 79 1013.5